Stations météo

réclame
Mon MeteoGroup
Bierset/Liege, Belgique (6478): Température de l'air & dewpoint: 14.07.2019 16:00:00 - 20.07.2019 16:00:00 (CEST)Bierset/Liege, Belgique (6478): Vitesse du vent & gusts: 14.07.2019 16:00:00 - 20.07.2019 16:00:00 (CEST)Bierset/Liege, Belgique (6478): Direction du vent: 14.07.2019 16:00:00 - 20.07.2019 16:00:00 (CEST)Bierset/Liege, Belgique (6478): reduced air pressure: 14.07.2019 16:00:00 - 20.07.2019 16:00:00 (CEST)Bierset/Liege, Belgique (6478): visibility: 14.07.2019 16:00:00 - 20.07.2019 16:00:00 (CEST)
Date & Time tt [°C] td [°C] ff [km/h] ff [knt] fx [km/h] fx [knt] dd ppp [hPa] vv [km]
20.07.2019 16:00:00 26,5 13,5 39 21 50 27 SW 1009,8 10
20.07.2019 15:00:00 26,2 13,2 29 16 47 25 SW 1009,9 10
20.07.2019 14:00:00 26,0 14,9 24 13 - - SSW 1010,3 10
20.07.2019 13:00:00 26,0 14,1 28 15 40 21 SSW 1010,1 10
20.07.2019 12:00:00 25,4 15,0 15 8 32 18 SSW 1009,9 10
20.07.2019 11:00:00 24,7 14,7 16 9 - - S 1010,2 10
20.07.2019 10:00:00 22,9 14,5 18 10 43 23 S 1010,2 10
20.07.2019 09:00:00 21,7 14,2 22 12 43 23 S 1010,4 10
20.07.2019 08:00:00 20,3 14,2 21 11 - - S 1010,6 10
20.07.2019 07:00:00 19,1 14,1 16 9 29 16 S 1010,9 10
20.07.2019 06:00:00 18,6 13,8 15 8 25 14 S 1011,1 10
20.07.2019 05:00:00 18,4 13,8 15 8 - - S 1011,6 10
20.07.2019 04:00:00 18,1 13,6 11 6 32 18 SE 1011,8 10
20.07.2019 03:00:00 18,7 13,9 13 7 32 18 - 1012,2 10
20.07.2019 02:00:00 18,7 13,8 11 6 - - SE 1012,7 10
20.07.2019 01:00:00 19,6 13,8 11 6 29 16 SSE 1013,1 10
20.07.2019 00:00:00 20,4 13,5 11 6 25 14 SSE 1013,4 10
19.07.2019 23:00:00 20,8 13,0 9 5 - - S 1013,6 10
19.07.2019 22:00:00 21,8 12,6 9 5 14 8 SSW 1013,6 10
19.07.2019 21:00:00 22,3 12,6 8 4 22 12 WSW 1013,6 10
19.07.2019 20:00:00 23,0 11,8 15 8 - - WSW 1013,6 10
19.07.2019 19:00:00 23,5 11,4 15 8 29 16 SSW 1013,6 10
19.07.2019 18:00:00 23,7 10,7 16 9 25 14 SW 1013,8 10
19.07.2019 17:00:00 23,2 10,9 15 8 - - WSW 1014,1 10
19.07.2019 16:00:00 23,3 10,5 13 7 29 16 SW 1014,4 10
19.07.2019 15:00:00 22,4 10,7 15 8 32 18 SW 1014,7 10
19.07.2019 14:00:00 22,2 10,9 13 7 - - WSW 1014,7 10
19.07.2019 13:00:00 21,7 11,4 16 9 32 18 SW 1014,9 10
19.07.2019 12:00:00 20,2 11,7 15 8 32 18 WSW 1015,1 10
19.07.2019 11:00:00 18,8 12,2 16 9 - - SW 1015,2 10
19.07.2019 10:00:00 17,7 12,4 16 9 25 14 WSW 1015,0 10
19.07.2019 09:00:00 16,8 12,5 16 9 25 14 SW 1014,9 10
19.07.2019 08:00:00 16,2 12,6 15 8 - - SW 1014,4 10
19.07.2019 07:00:00 15,8 12,6 11 6 22 12 W 1014,2 40
19.07.2019 06:00:00 16,6 15,2 13 7 25 14 SW 1014,0 10
19.07.2019 05:00:00 17,0 15,4 11 6 - - SW 1013,8 15
19.07.2019 04:00:00 17,0 15,4 13 7 25 14 SW 1013,8 10
19.07.2019 03:00:00 17,1 15,2 13 7 18 10 SSW 1013,7 10
19.07.2019 02:00:00 17,2 15,4 8 4 - - WSW 1013,7 10
19.07.2019 01:00:00 18,0 14,2 9 5 18 10 S 1013,5 10
19.07.2019 00:00:00 18,4 13,6 11 6 22 12 S 1013,4 10
18.07.2019 23:00:00 18,3 14,1 11 6 - - SW 1013,4 10
18.07.2019 22:00:00 18,2 14,0 18 10 32 18 WSW 1013,4 10
18.07.2019 21:00:00 20,0 11,7 16 9 25 14 W 1012,6 10
18.07.2019 20:00:00 21,3 13,1 13 7 - - W 1012,0 10
18.07.2019 19:00:00 22,0 12,3 16 9 29 16 W 1011,9 10
18.07.2019 18:00:00 22,6 11,6 18 10 29 16 W 1011,9 30
18.07.2019 17:00:00 22,6 10,3 21 11 - - W 1011,7 10
18.07.2019 16:00:00 23,1 11,4 22 12 32 18 WSW 1011,5 30
18.07.2019 15:00:00 23,3 12,0 18 10 40 21 WSW 1011,5 10
18.07.2019 14:00:00 23,6 11,6 29 16 - - WSW 1011,5 30
18.07.2019 13:00:00 21,9 10,1 15 8 29 16 WSW 1012,1 10
18.07.2019 12:00:00 22,1 9,5 15 8 25 14 SW 1011,9 10
18.07.2019 11:00:00 20,1 10,9 13 7 - - WSW 1012,2 10
18.07.2019 10:00:00 18,3 11,4 9 5 22 12 WSW 1012,3 10
18.07.2019 09:00:00 17,9 10,8 13 7 22 12 WSW 1012,3 10
18.07.2019 08:00:00 17,3 11,3 15 8 - - SW 1012,1 10
18.07.2019 07:00:00 16,1 10,9 11 6 25 14 SW 1012,0 10
18.07.2019 06:00:00 16,3 10,6 11 6 25 14 SSE 1011,9 10
18.07.2019 05:00:00 16,5 11,0 15 8 - - SE 1012,0 10
18.07.2019 04:00:00 16,8 11,0 13 7 22 12 SE 1012,4 10
18.07.2019 03:00:00 17,3 11,3 11 6 18 10 SE 1012,8 10
18.07.2019 02:00:00 17,6 11,1 9 5 - - SE 1013,1 10
18.07.2019 01:00:00 18,2 11,4 9 5 22 12 SE 1013,1 10
18.07.2019 00:00:00 18,9 11,1 9 5 22 12 SE 1013,2 10
17.07.2019 23:00:00 19,5 11,2 9 5 - - E 1013,3 10
17.07.2019 22:00:00 19,9 10,7 8 4 22 12 E 1013,5 10
17.07.2019 21:00:00 20,0 11,2 9 5 18 10 NE 1013,5 10
17.07.2019 20:00:00 21,0 11,6 11 6 - - NNE 1013,5 10
17.07.2019 19:00:00 22,2 10,5 11 6 22 12 NE 1013,5 10
17.07.2019 18:00:00 22,5 10,7 11 6 22 12 NNE 1013,8 13
17.07.2019 17:00:00 23,1 10,7 9 5 - - N 1014,3 10
17.07.2019 16:00:00 22,6 10,9 9 5 18 10 NE 1014,6 10
17.07.2019 15:00:00 21,9 11,8 4 2 22 12 - 1014,8 10
17.07.2019 14:00:00 21,4 11,2 8 4 - - - 1015,3 9
17.07.2019 13:00:00 20,6 12,2 2 1 14 8 - 1015,8 9
17.07.2019 12:00:00 19,2 11,5 0 0 11 6 N 1016,0 8
17.07.2019 11:00:00 17,9 11,3 2 1 - - - 1016,4 8
17.07.2019 10:00:00 17,0 11,9 5 3 11 6 NNW 1016,7 6
17.07.2019 09:00:00 14,7 11,8 4 2 18 10 - 1016,8 4,0
17.07.2019 08:00:00 12,2 10,6 5 3 - - SSE 1016,8 3,0
17.07.2019 07:00:00 11,7 10,4 5 3 18 10 SSE 1016,8 4,0
17.07.2019 06:00:00 11,6 10,1 4 2 29 16 S 1017,0 4,0
17.07.2019 05:00:00 11,6 10,3 8 4 - - SSE 1016,9 3,8
17.07.2019 04:00:00 12,8 10,4 5 3 18 10 S 1017,4 5
17.07.2019 03:00:00 13,5 10,7 4 2 18 10 - 1017,5 7
17.07.2019 02:00:00 14,0 10,5 5 3 - - SE 1017,6 10
17.07.2019 01:00:00 15,0 10,8 2 1 7 4 - 1017,8 10
17.07.2019 00:00:00 15,9 10,4 4 2 7 4 - 1017,8 10
16.07.2019 23:00:00 16,1 10,1 4 2 - - E 1018,0 10
16.07.2019 22:00:00 16,3 10,4 5 3 11 6 NE 1017,9 10
16.07.2019 21:00:00 17,1 10,8 5 3 11 6 N 1017,9 10
16.07.2019 20:00:00 17,6 10,7 5 3 - - N 1018,0 10
16.07.2019 19:00:00 17,3 10,4 11 6 18 10 N 1018,2 10
16.07.2019 18:00:00 17,8 10,4 8 4 18 10 N 1018,4 10
16.07.2019 17:00:00 17,4 9,9 8 4 - - NW 1018,9 10
16.07.2019 16:00:00 17,3 10,5 8 4 14 8 N 1019,2 10
16.07.2019 15:00:00 16,3 9,4 5 3 14 8 - 1019,6 10
16.07.2019 14:00:00 15,5 9,5 4 2 - - - 1020,1 10
16.07.2019 13:00:00 14,7 9,3 11 6 14 8 NNW 1020,2 20
16.07.2019 12:00:00 14,2 9,2 8 4 14 8 NW 1020,4 10
16.07.2019 11:00:00 13,9 10,0 5 3 - - NNW 1020,5 10
16.07.2019 10:00:00 13,7 11,1 4 2 7 4 - 1020,5 10
16.07.2019 09:00:00 12,8 11,5 5 3 11 6 NNW 1020,4 10
16.07.2019 08:00:00 12,3 11,3 4 2 - - - 1020,4 9
16.07.2019 07:00:00 11,4 10,7 4 2 14 8 NNW 1020,3 4,5
16.07.2019 06:00:00 10,8 10,2 4 2 11 6 NNW 1020,2 4,9
16.07.2019 05:00:00 11,7 10,8 5 3 - - NNW 1020,0 9
16.07.2019 04:00:00 11,9 10,8 8 4 11 6 NNW 1020,3 10
16.07.2019 03:00:00 12,9 11,2 5 3 14 8 NNW 1020,5 10
16.07.2019 02:00:00 13,4 11,2 9 5 - - NNW 1020,5 10
16.07.2019 01:00:00 13,9 11,0 8 4 11 6 NW 1020,5 10
16.07.2019 00:00:00 14,3 10,2 5 3 11 6 NNW 1020,4 10
15.07.2019 23:00:00 14,7 10,1 8 4 - - N 1020,3 10
15.07.2019 22:00:00 15,3 9,5 5 3 11 6 NNW 1020,2 10
15.07.2019 21:00:00 15,7 8,1 8 4 14 8 N 1020,1 10
15.07.2019 20:00:00 15,9 9,2 8 4 - - N 1020,2 10
15.07.2019 19:00:00 15,7 10,2 8 4 22 12 N 1020,2 10
15.07.2019 18:00:00 15,2 10,5 13 7 22 12 N 1020,6 10
15.07.2019 17:00:00 15,1 10,6 9 5 - - N 1020,8 10
15.07.2019 16:00:00 15,4 10,3 9 5 22 12 NNW 1020,7 10
15.07.2019 15:00:00 14,5 10,0 9 5 22 12 NNW 1020,8 10
15.07.2019 14:00:00 15,8 9,6 5 3 - - N 1020,7 10
15.07.2019 13:00:00 14,8 9,8 4 2 14 8 - 1020,9 10
15.07.2019 12:00:00 14,1 9,3 9 5 14 8 N 1020,9 10
15.07.2019 11:00:00 14,1 8,9 8 4 - - NNE 1020,9 10
15.07.2019 10:00:00 14,1 8,6 9 5 14 8 NNW 1020,8 10
15.07.2019 09:00:00 13,1 10,4 5 3 7 4 NNE 1020,8 10
15.07.2019 08:00:00 11,6 10,4 4 2 - - - 1020,8 8
15.07.2019 07:00:00 10,9 10,0 5 3 7 4 N 1020,6 9
15.07.2019 06:00:00 10,3 9,4 5 3 7 4 NNW 1020,6 10
15.07.2019 05:00:00 10,8 9,6 4 2 - - NNW 1020,4 10
15.07.2019 04:00:00 11,0 9,5 5 3 11 6 NNW 1020,4 10
15.07.2019 03:00:00 12,2 9,8 8 4 22 12 N 1020,6 10
15.07.2019 02:00:00 12,9 10,0 15 8 - - NNE 1020,6 10
15.07.2019 01:00:00 14,1 11,0 15 8 22 12 N 1020,6 10
15.07.2019 00:00:00 14,5 12,0 9 5 18 10 NNW 1020,5 10
14.07.2019 23:00:00 15,2 12,1 11 6 - - N 1020,4 10
14.07.2019 22:00:00 15,7 11,6 9 5 14 8 N 1020,2 10
14.07.2019 21:00:00 15,8 11,9 11 6 22 12 NNW 1020,1 10
14.07.2019 20:00:00 16,2 11,6 13 7 - - N 1020,0 10
14.07.2019 19:00:00 17,0 11,6 15 8 22 12 NNW 1019,8 10
14.07.2019 18:00:00 16,6 11,8 15 8 22 12 N 1019,9 10
14.07.2019 17:00:00 17,9 11,8 13 7 - - N 1019,9 10
14.07.2019 16:00:00 17,1 11,0 11 6 22 12 NNW 1020,1 10

tt = Température de l'air
td = dewpoint
ff = Vitesse du vent
fx = gusts
dd = Direction du vent
ppp = reduced air pressure
vv = visibility

stations d'obs. à proximité